Location: Buckeye Ditch
(40.9104°N, 122.9517°W)
Time: 12:09:03
(UTC+00:00)

Tiros 1 despin weight - Pass Details

Date: 23 May 2025
Orbit: 563 x 601 km, 48.2° (Epoch: 22 June)

Event Time Altitude Azimuth Distance (km) Brightness Sun altitude
Rises 08:21:19 0° 207° (SSW) 2,776 - -28.4°
Reaches altitude 10° 08:23:49 10° 196° (SSW) 1,888 - -28.3°
Maximum altitude 08:27:29 27° 138° (SE) 1,130 - -28.3°
Exits shadow 08:30:58 11° 81° (E) 1,843 ? -28.2°
Drops below altitude 10° 08:31:12 10° 80° (E) 1,918 ? -28.2°
Sets 08:33:45 0° 68° (ENE) 2,829 ? -28.2°
